CAPE
17 102 17 32 30 100 235 115 5 14 14 74 21 10 208 612 1076 1052 886 868 861 940 1848 451 63 83 105 228 82 425 396 4 182 86 1 34 206 345 506 630 882 1220 1432 1321 1325 1640 2154 2685 2936 2808 2840 2818 2744 2894 3097 2997 3062 3013 3009 2819 2659 2656 2746 2745 2680 2796 2766 2787 2654 2660 2870 2836 2858 2846 2865 2898 2844 2788 2419 2374 2374 2433 2815 2609 2484 2284 2286 2538 2342 1709 1838 2524 2352 2272 2400 2306 2331
186 68 101 134 187 72 82 272 61 12 37 16 91 363 538 908 1023 1032 1082 1164 1152 1215 1466 267 268 765 820 485 334 226 105 564 749 434 189 248 317 484 608 799 1021 1335 1493 1436 1540 1768 2193 2717 2952 2887 2864 2806 2946 3135 3167 3061 3022 2916 2800 2599 2624 2647 2627 2715 2724 2772 2630 2892 2824 2779 2753 2632 2659 2793 2555 2833 2705 2708 2343 2401 2568 2585 2767 2636 2560 2536 2365 2388 2474 2000 2138 1973 2194 2092 2134 2149 2362
193 164 139 386 244 268 239 187 83 119 75 57 198 548 774 1014 886 1118 1272 1439 935 1332 846 631 934 1030 463 164 219 341 128 524 228 244 323 374 422 534 683 892 1168 1416 1602 1581 1671 1921 2282 2639 2992 3032 2842 2836 3002 3204 3050 2988 2924 2732 2531 2506 2437 2458 2487 2324 2660 2681 2669 2703 2636 2654 2680 2378 2633 2670 2512 2630 2610 2758 2740 2447 2445 2671 2826 2738 2795 2651 2312 2612 2500 2489 2128 2042 2214 2209 2158 2372 2351
185 113 102 202 155 240 66 92 176 246 146 268 166 1055 950 1056 1206 1234 902 1138 1108 1208 742 487 428 758 679 330 264 812 344 384 275 187 245 416 335 595 779 1066 1316 1424 1670 1809 1794 2026 2346 2514 3120 3127 2855 2934 3141 3187 3036 2858 2693 2616 2745 2692 2634 2770 2619 2498 2448 2502 2431 2716 2600 2532 2490 2527 2590 2398 2476 2462 2511 2300 2540 2372 2266 2406 3014 2995 2778 2649 2617 2526 2495 2052 2058 2561 2610 2508 2340 2464 2600
86 92 196 353 309 305 134 444 400 455 300 142 144 1230 1168 1314 1414 1134 875 979 961 1029 814 583 612 696 682 466 344 802 245 482 278 285 216 441 581 723 920 1181 1297 1492 1728 1944 2006 2250 2347 2822 3099 2926 2938 3090 3136 3199 3079 2962 2874 2666 2536 2795 2750 2680 2667 2531 2307 2444 2692 2646 2614 2562 2560 2522 2535 2456 2441 2423 2622 2510 2416 2397 2406 2377 2688 3054 3026 3025 2909 2880 2704 2722 2632 2418 2290 2341 2193 2284 2512
220 148 356 459 447 566 419 407 386 381 423 1040 441 898 1246 897 1493 890 917 837 867 1235 883 555 525 640 542 388 247 500 497 304 249 265 260 621 717 822 1070 1175 1332 1554 1730 1935 2123 2211 2470 3039 2840 2980 3037 3128 3184 3034 2948 2844 2859 2861 2844 2848 2701 2679 2511 2424 2434 2514 2489 2454 2588 2569 2684 2533 2644 2549 2362 2740 2512 2572 2566 2594 2340 2431 2502 2908 2811 2372 2711 2836 2770 2762 2626 2532 2478 2282 2626 2622 2778
204 170 315 339 398 490 524 313 4 209 378 946 788 1077 1118 888 1146 866 846 782 731 742 790 530 180 382 750 586 322 466 420 568 287 226 374 696 788 950 1064 1164 1362 1530 1705 1998 2110 2229 2549 2928 2999 3088 3138 3181 2991 3050 2991 2921 2964 3014 2813 2860 2545 2276 2482 2534 2521 2486 2436 2393 2548 2642 2605 2450 2389 2501 2550 2549 2720 2742 2721 2493 2264 2536 2588 2764 2629 2505 2564 2716 2881 2566 2315 2296 2474 2495 2574 2394 2254
209 310 290 280 730 643 620 511 114 666 610 714 792 1049 906 1172 758 836 730 582 580 692 652 567 249 556 552 648 562 404 488 338 224 401 712 768 868 971 1016 1180 1347 1506 1724 2042 2126 2283 2710 2952 2980 2984 3149 3066 2966 3024 2930 2770 3023 2916 2870 2806 2329 2067 2322 2433 2451 2527 2552 2593 2571 2786 2565 2342 2274 2523 2540 2582 2711 2701 2804 2555 2551 2566 2740 2528 2775 2810 2842 2994 2690 2553 2642 2307 2635 2196 2416 2507 2393
317 584 612 690 700 232 265 222 117 716 602 868 884 1604 1468 1000 786 710 943 913 654 568 618 552 593 524 452 596 722 523 578 455 549 791 729 815 893 928 1010 1186 1332 1516 1754 2020 2105 2354 2778 2927 2903 2999 3073 2942 3009 3118 2797 2704 2937 2759 2708 2577 2354 2214 2167 2185 2214 2543 2532 2619 2734 2812 2434 2330 2362 2361 2468 2435 2794 2690 2652 2702 2696 2728 2608 2580 2650 2691 2695 2846 2669 2568 2635 2064 2022 1984 1990 2059 2392
649 514 875 678 305 299 357 1 0 386 504 638 792 1436 1040 944 1039 990 794 563 1064 503 571 486 504 491 546 688 639 598 604 627 654 682 764 811 866 892 1000 1190 1340 1504 1717 1930 2067 2454 2772 2934 2878 2986 2844 2877 3078 3050 2866 2912 2843 2641 2446 2204 2143 2129 2174 2049 2302 2512 2644 2482 2698 2734 2654 2504 2525 2567 2554 2709 2708 2827 2820 2709 2732 2483 2576 2580 2718 2713 2712 2592 2399 2509 2530 2478 2286 2082 2081 2351 2479
718 491 688 723 420 52 0 10 319 72 479 785 1032 1560 1494 1178 1107 896 1087 1022 584 478 469 384 488 393 433 538 578 618 579 554 588 706 750 809 814 861 1014 1165 1313 1488 1690 1863 2099 2570 2844 2667 2959 2941 2876 2977 3053 3028 2918 2850 2407 2327 2143 1894 2028 1938 2318 2445 2505 2604 2732 2567 2483 2643 2683 2750 2547 2648 2609 2738 2699 2795 2792 2700 2730 2513 2420 2772 2560 2742 2808 2616 2424 2658 2521 2584 2565 2252 2151 2446 2492
1148 638 786 524 230 3 4 0 132 406 515 566 788 1559 1434 1113 902 942 698 461 412 440 396 256 467 347 477 461 548 712 459 504 583 687 741 754 794 885 1009 1177 1313 1507 1736 1922 2276 2608 2766 2758 2834 2861 2774 2837 3021 3041 3002 2891 2539 2072 2098 2041 1974 2119 2402 2581 2624 2756 2846 2686 2845 2783 2846 2829 2672 2676 2516 2615 2822 2795 2724 2605 2620 2418 2508 2672 2543 2685 2746 2758 2696 2608 2579 2516 2579 2521 2316 2248 2471
1208 743 894 363 328 23 1 114 423 728 418 306 652 1419 1082 690 680 984 557 389 446 386 390 368 300 319 429 467 632 525 482 488 567 663 698 724 828 937 1100 1284 1508 1692 1852 2119 2350 2620 2669 2682 2600 2658 2768 2979 3022 3039 3116 2916 2520 2235 2034 2098 2189 2406 2533 2700 2819 2970 2930 2932 2879 2825 2727 2746 2806 2738 2656 2771 2880 2559 2172 2540 2613 2728 2619 2662 2880 2804 2892 2913 2786 2788 2577 2575 2585 2522 2140 2270 2341
1196 824 780 579 226 423 462 304 68 220 11 395 846 1246 853 787 790 855 404 359 276 333 316 274 268 412 528 473 526 498 465 463 564 617 653 790 916 1048 1263 1492 1700 1852 2067 2216 2429 2621 2528 2601 2421 2428 2636 2724 2905 3075 2955 2867 2487 2499 2419 2272 2436 2592 2692 2854 2882 2950 2916 2866 2790 2744 2766 2763 2848 2886 2958 2777 2480 2453 2371 2152 2344 2620 2943 2927 2934 3040 2986 3071 2856 2743 2624 2598 2513 2293 2428 2438 2562
1113 842 992 676 556 373 213 96 144 35 0 530 1229 856 1110 1501 816 461 380 411 398 344 267 310 280 129 397 436 365 400 445 487 548 556 749 922 1066 1232 1451 1656 1854 2042 2205 2326 2517 2532 2454 2477 2374 2375 2539 2670 2752 2860 2794 2768 2731 2560 2550 2484 2692 2827 2754 2757 2778 2740 2940 2751 2524 2417 2244 2233 2444 2346 2694 2717 2648 2588 2517 2494 2705 2849 2930 3001 3051 3122 2893 3040 2854 2765 2803 2643 2476 2651 2857 2962 2806
1488 1276 996 800 404 110 1 5 53 1 1 426 1116 830 915 794 636 454 471 455 571 423 465 527 221 254 259 367 296 393 440 495 489 600 846 1079 1238 1385 1577 1789 2016 2205 2292 2419 2552 2406 2420 2442 2308 2398 2529 2636 2720 2810 2820 2759 2704 2862 3084 2967 2966 2801 2739 2698 2711 2794 2838 2782 2534 2658 2493 3027 2658 2792 2796 2860 2740 2576 2636 2704 2742 2645 2998 3006 3156 3181 3094 2953 2962 2925 2909 2729 2568 2708 2837 2888 2655
1379 1416 990 733 316 16 14 2 1 44 26 548 931 678 667 666 585 509 485 421 522 499 465 478 374 271 326 271 317 416 446 474 511 652 959 1145 1267 1406 1576 1810 2042 2216 2261 2440 2486 2296 2449 2447 2406 2383 2488 2568 2695 2814 2825 2966 2993 2983 3150 3060 2897 2743 2719 2756 2717 2756 2897 2794 2981 2840 3001 2931 2559 2626 3066 2986 2692 2724 2495 2659 2556 2914 2832 2872 2860 2984 3166 3085 2876 2906 2996 2947 2848 2662 2520 2466 2641
1559 948 756 602 528 165 37 8 2 0 312 565 725 622 602 646 560 544 450 699 495 457 711 410 315 305 300 264 346 440 431 424 477 709 944 1094 1148 1252 1401 1649 1842 1840 2099 2339 2444 2254 2412 2449 2435 2326 2420 2499 2644 2828 2924 2934 2883 3034 2912 2950 2956 2804 2778 2776 2844 2860 2900 2753 2834 3046 3034 3548 2652 2718 3239 3218 3561 3285 3152 2636 2274 2638 2264 2511 2325 2794 2982 2929 2794 2796 2907 2670 2958 2766 2881 2529 2903
1180 895 742 495 372 328 2 23 2 80 157 545 572 562 582 599 498 483 417 620 549 456 692 385 352 322 279 307 370 435 403 362 450 706 924 991 1023 1088 1236 1463 1642 1796 1969 2158 2319 2257 2292 2335 2420 2308 2350 2424 2620 2796 2860 2905 2695 2930 2974 2728 2858 2864 3125 3177 2623 3054 2571 2520 2646 2916 3089 2804 2650 2678 2898 3246 3292 2776 2717 2426 2388 2282 2384 2367 2315 2238 2583 2323 2422 2378 2204 2572 2428 2853 2592 2338 2328
1246 889 776 538 452 395 2 12 15 1 217 446 509 528 577 546 486 459 410 561 561 490 576 394 356 334 330 328 377 392 338 312 424 716 890 917 968 1023 1148 1315 1452 1562 1674 1904 2108 2172 2154 2147 2282 2305 2308 2406 2563 2745 2816 2833 2801 2924 2889 2648 2604 2590 2707 2550 2530 2674 2496 2452 2642 2695 2662 3038 2553 2540 3434 3216 3552 2936 2912 3224 2567 2237 2294 2365 2215 3572 2544 1958 1872 1738 1981 2157 3829 2915 2417 2630 2415
1176 1066 656 624 546 551 196 174 77 3 359 392 401 513 502 521 516 460 432 460 582 450 541 418 352 375 344 340 385 369 297 280 385 733 850 866 918 952 1061 1162 1231 1418 1634 1813 2032 2093 2045 1954 2053 2269 2307 2406 2513 2667 2744 2751 2820 2865 2827 2689 2566 2511 2648 2447 2459 2643 2501 2476 2644 2675 2645 2998 2646 2493 2327 2558 2864 2589 2622 2490 2688 2788 2553 3176 3995 2878 2856 3282 3063 2784 2988 3392 2715 2770 2544 2518 2439
1061 1147 893 630 343 406 396 1 41 11 145 376 326 405 515 535 508 514 443 353 548 547 594 477 347 390 357 348 370 344 267 252 372 746 840 836 868 896 950 1014 1104 1329 1594 1735 1882 1981 2000 1825 1844 2160 2328 2377 2450 2611 2629 2749 2722 2732 2785 2705 2573 2581 2641 2600 2528 2687 2546 2451 2484 2754 3108 2814 2738 2656 2451 2526 2637 2744 2272 2542 2730 2724 2807 2982 3610 2459 2719 2893 3078 2864 2894 3032 2893 3036 2725 2626 2533
842 878 977 952 840 720 598 354 2 5 84 157 167 275 392 475 508 524 494 435 490 510 584 542 374 393 358 329 326 308 235 224 346 730 811 819 818 812 879 916 1024 1225 1512 1558 1747 1898 1942 1796 1689 2016 2279 2332 2372 2520 2538 2662 2660 2635 2706 2665 2591 2612 2710 2620 2602 2663 2650 2471 2490 2818 2784 2706 2740 2680 2535 2390 2604 2752 2516 2210 2426 2602 2563 2474 3012 2802 2768 2738 2828 2892 2772 2773 2935 2778 2708 2604 2618
636 731 654 681 732 784 708 623 516 322 76 134 147 98 284 284 450 535 581 456 473 399 612 608 483 408 362 332 299 272 210 209 320 688 814 820 806 752 798 819 918 1124 1393 1436 1651 1780 1948 1775 1587 1823 2098 2244 2262 2420 2436 2544 2546 2586 2608 2770 2672 2606 2696 2684 2617 2646 2652 2551 2523 2540 3090 2583 2638 2643 2612 2514 2626 2686 2692 2263 2069 2322 2410 2340 2451 2904 2585 2522 2635 2613 1987 2289 2332 2833 2802 2695 2550
558 473 390 463 400 306 250 299 164 134 37 84 103 182 151 227 320 532 596 537 466 533 587 620 543 463 345 324 276 219 162 173 284 671 800 788 758 696 694 684 806 1024 1261 1337 1562 1722 1792 1842 1504 1586 1847 2102 2103 2286 2316 2401 2404 2522 2506 2565 2600 2739 2648 2671 2679 2649 2652 2625 2587 2564 3176 2510 2446 2520 2517 2459 2540 2646 2646 2427 2005 2214 2117 2137 2309 2575 2627 2500 2442 1987 2078 2014 1940 2183 2328 2384 2269
384 406 311 188 163 198 189 214 6 80 13 66 48 236 55 176 101 418 524 488 476 616 570 636 534 400 394 327 274 196 165 187 301 673 798 799 776 701 634 555 683 908 1127 1240 1461 1605 1738 1797 1530 1406 1567 1889 1952 2115 2141 2251 2302 2372 2383 2406 2472 2708 2585 2594 2666 2664 2638 2618 2564 2477 2614 2488 2316 2310 2326 2283 2340 2549 2592 2405 2238 2192 2278 2164 2191 2391 2452 2453 2340 2140 2145 2174 1916 1852 1999 2109 2111
56 213 261 227 95 115 118 126 49 0 10 33 132 187 26 183 368 438 284 570 542 562 658 529 594 594 354 332 258 194 191 202 371 667 758 787 794 717 596 456 556 740 966 1120 1312 1426 1664 1749 1565 1321 1339 1595 1791 1872 1945 2012 2134 2196 2213 2276 2270 2391 2462 2438 2563 2631 2569 2514 2454 2428 2327 2723 2331 2224 2191 2122 2163 2389 2532 2468 2260 2119 2168 2273 2334 2182 2142 2355 2220 2208 1656 1398 1314 1317 1516 1561 1981
0 0 0 0 64 134 122 120 122 120 9 11 103 176 22 6 210 195 2 563 652 705 679 647 671 713 486 295 234 215 230 224 408 668 760 806 814 730 576 422 452 555 810 995 1174 1289 1554 1648 1613 1295 1210 1403 1555 1609 1707 1816 1906 1934 1965 1970 2024 2105 2273 2357 2389 2484 2445 2301 2279 2382 2434 2341 2930 2256 2227 2188 1996 2178 2362 2364 2247 2138 2098 2192 2306 2143 1796 2309 1896 1823 2029 1707 1465 1710 1919 1867 2018
0 0 0 0 0 104 126 135 143 131 19 2 48 128 128 2 54 35 75 506 663 683 701 721 730 770 575 246 245 287 292 297 464 652 746 814 838 783 612 421 409 480 618 847 1045 1198 1411 1538 1491 1368 1124 1211 1349 1408 1454 1558 1693 1746 1783 1832 1828 1908 2083 2188 2203 2268 2254 2038 2035 2284 2401 2418 2599 2322 2217 2198 2648 2038 2168 2211 2154 2189 2156 2178 2194 2162 2026 2009 2411 2372 2039 1829 2012 2193 2225 2068 2210
0 0 0 0 0 0 73 130 161 60 146 5 91 212 154 10 21 6 288 620 665 726 710 745 776 774 612 270 338 378 353 384 484 614 725 793 858 832 654 447 401 384 472 637 891 1111 1291 1421 1439 1334 1117 1019 1142 1182 1218 1296 1439 1588 1620 1646 1689 1775 1865 1948 1952 1965 1971 1839 1950 2156 2328 2376 2393 2314 2286 2259 2076 2056 2008 2062 2059 2023 2053 2095 2094 2202 2122 2177 2314 1778 1880 2059 2508 2729 2272 2217 2225
0 0 0 0 0 0 0 0 121 0 10 25 140 150 62 131 11 180 526 651 658 732 754 700 739 745 616 404 438 474 447 462 523 581 692 760 847 876 736 516 398 336 420 495 748 974 1270 1292 1296 1241 1129 895 1132 950 1057 1016 1109 1277 1373 1376 1378 1444 1536 1617 1662 1674 1583 1506 1805 2052 2243 2318 2387 2353 2351 2294 2104 1856 1861 1910 1933 1906 1872 1953 2053 2222 2240 2328 2324 2325 2280 2112 1903 1882 1873 2360 2128
0 0 0 0 0 0 0 0 122 0 4 96 161 120 106 120 0 366 567 659 655 692 758 715 678 692 612 465 505 538 540 550 580 606 685 724 796 905 856 643 434 328 344 420 599 813 1070 1155 1204 1152 1096 862 851 791 748 706 729 902 1078 1273 1118 1174 1261 1317 1386 1445 1432 1375 1752 1920 2050 2256 2422 2349 2312 2261 2138 1856 1775 1754 1755 1792 1870 2116 2190 2320 2481 1914 1997 1902 2097 1753 1854 1911 2306 1350 1469
0 0 0 0 0 0 0 0 0 0 5 24 162 88 98 123 14 372 544 662 641 652 724 729 664 616 555 532 536 568 577 587 649 672 714 725 743 857 914 806 555 372 310 340 502 710 914 1003 1166 1028 972 868 708 688 610 507 432 483 720 1067 978 997 1057 1126 1154 1202 1270 1245 1588 1815 1894 2084 2398 2288 2250 2182 2138 2005 1744 1703 1701 1769 2124 2330 2281 2386 2645 2406 2008 1980 2064 2724 2184 1540 896 642 62
0 0 0 0 0 0 0 0 0 0 9 63 67 64 153 145 91 392 543 633 613 616 667 702 673 608 566 543 524 564 593 619 690 730 756 766 757 793 892 914 781 482 331 325 442 631 798 875 942 908 850 800 640 669 631 547 442 388 512 724 1241 899 901 905 994 1104 1191 1294 1411 1701 1764 1916 2292 2194 2221 2166 2092 1963 1738 1748 1681 1904 2244 2399 2320 2464 2509 2384 2332 2206 2093 2132 2054 1432 518 0 0
0 0 0 0 0 0 0 0 0 0 3 53 44 47 54 152 258 387 537 606 604 608 624 650 657 613 554 525 502 515 564 620 676 746 785 806 798 786 843 909 898 823 517 344 394 554 681 777 824 814 720 694 592 673 711 633 526 356 320 515 884 962 851 796 845 1023 1132 1270 1342 1531 1629 1820 2262 2119 2144 2114 2010 1929 1993 1810 1882 2033 2437 2328 2310 2470 2525 2536 2385 2006 2134 2062 1476 889 0 0 0
0 0 0 0 0 0 0 0 0 0 0 35 31 47 102 19 361 395 486 584 575 585 602 590 606 597 562 505 469 472 527 580 642 704 776 820 826 813 824 878 904 907 846 615 429 503 607 696 755 766 672 505 549 662 762 749 706 601 402 389 632 947 940 954 876 958 1080 1239 1396 1532 1672 1767 2004 2214 2061 2041 1908 1799 1855 1879 2020 2120 2434 2246 2283 2386 2454 2451 2345 2164 2018 1788 1302 398 136 92 268
0 0 0 0 0 0 0 0 0 0 0 6 27 38 44 17 370 414 454 537 547 530 567 578 569 584 574 520 475 468 506 562 614 672 735 793 830 828 820 836 882 890 841 753 557 483 552 637 760 728 666 502 585 665 762 775 806 754 530 407 492 665 940 991 1083 968 962 1126 1306 1577 1665 1792 1905 2122 2114 1949 1757 2084 1878 1798 2039 2228 2395 2236 2264 2326 2293 2299 2330 1852 2456 2558 1174 15 92 84 204
0 0 0 0 0 0 0 0 0 0 0 0 0 5 16 4 279 430 386 472 500 500 520 536 540 553 569 544 499 477 508 520 572 626 693 741 808 845 838 845 846 854 857 791 607 521 552 595 680 711 662 525 586 667 801 854 818 836 755 582 449 498 771 1079 1093 1054 1074 1265 1516 1597 1678 1785 1836 1966 2256 1865 1737 1766 1780 1708 1966 2337 2424 2296 2220 2316 2211 2826 2918 1978 2182 1752 948 2 20 128 219
0 0 0 0 0 0 0 0 0 0 0 0 0 0 3 0 108 386 420 453 468 459 474 488 496 519 549 550 540 492 475 514 543 592 637 694 737 783 831 831 840 832 841 832 744 561 570 587 646 682 659 576 594 709 780 849 831 928 844 746 629 611 784 1007 1100 1095 1253 1340 1508 1608 1661 1733 1772 1868 2082 2030 1851 1775 1754 1672 1832 2167 2386 2504 2505 2297 2514 2494 2434 2096 1960 1715 847 260 517 46 162
0 0 0 0 0 0 0 0 0 0 0 0 0 0 0 0 14 329 406 463 460 438 432 444 447 460 490 526 540 523 474 500 529 554 611 658 696 735 742 768 784 776 775 778 754 694 597 714 656 697 686 623 612 741 979 829 907 948 962 941 839 827 1048 1210 1252 1214 1212 1371 1514 1586 1598 1660 1714 1780 1893 1972 1898 1797 1814 1800 1811 2002 2325 2407 2373 2322 2310 2339 2292 2252 2087 1882 924 14 5 290 439
0 0 0 0 0 0 0 0 0 0 0 0 0 0 0 0 0 62 382 486 396 423 414 348 278 432 426 455 462 464 463 478 503 530 572 622 679 716 738 748 739 746 740 743 748 692 684 705 711 777 759 686 647 864 994 902 1086 1040 1082 1118 1091 986 1148 1230 1278 1338 1317 1371 1544 1555 1643 1613 1670 1719 1748 1888 1982 1804 1856 1896 1848 1912 2174 2280 2381 2370 2404 2404 2288 2161 2156 1964 1267 197 0 12 430
0 0 0 0 0 0 0 0 0 0 0 0 0 0 0 0 0 6 176 483 363 310 350 398 413 260 274 437 423 428 398 410 447 478 530 584 640 688 704 722 738 749 744 738 727 704 773 771 782 813 832 779 698 745 940 981 1031 1030 1098 1135 1127 1063 1020 1144 1287 1361 1410 1396 1499 1530 1626 1702 1668 1738 1689 1751 1910 1792 1830 1890 1878 1909 2100 2250 2395 2402 2432 2409 2303 2128 2198 2089 1643 946 17 0 0
0 0 0 0 0 0 0 0 0 0 0 0 0 0 0 0 0 0 2 232 480 393 247 429 413 218 356 418 426 423 406 378 355 393 444 507 586 644 680 712 748 767 781 760 750 770 839 866 838 862 908 923 813 752 912 1138 952 980 1046 1106 1108 1065 997 1019 1160 1318 1409 1459 1488 1503 1640 1776 1713 1774 1815 1723 1781 1890 1794 1838 1880 1972 2126 2210 2536 2339 2381 2408 2332 2316 2264 2174 1890 1160 426 0 0
0 0 0 0 0 0 0 0 0 0 0 0 0 0 0 0 0 0 0 80 222 410 287 246 386 397 436 317 414 420 423 377 351 330 365 457 518 578 644 667 716 764 800 804 794 792 880 945 931 925 972 1138 996 842 890 1066 945 976 1014 1081 1164 1101 998 994 1046 1181 1334 1428 1457 1505 1546 1790 1832 1775 1839 1812 1768 1896 1788 1751 1841 2125 2216 2190 2487 2398 2347 2402 2449 2456 2412 2298 2128 1537 1013 273 0
0 0 0 0 0 0 0 0 0 0 0 0 0 0 0 0 0 0 0 0 13 159 210 274 419 422 219 240 418 416 410 396 348 329 323 377 467 520 573 630 664 718 773 840 858 854 901 961 1043 999 988 1170 1066 992 940 976 1058 952 982 1036 1126 1191 1082 1028 1048 1075 1218 1309 1379 1451 1493 1708 1835 1842 1812 1862 1842 1830 2186 1737 1734 2114 2333 2311 2754 2451 2350 2406 2494 2508 2458 2454 2310 2054 1539 1082 561
0 0 0 0 0 0 0 0 0 0 0 0 0 0 0 0 0 0 0 0 0 28 148 186 387 417 232 222 424 406 404 380 252 296 311 324 382 461 534 582 613 660 728 840 914 928 926 965 1065 1064 1046 1103 1139 1080 1066 950 977 1076 910 953 1008 1088 1109 1063 1048 1088 1168 1249 1315 1402 1446 1632 1788 1869 1866 1839 1881 1838 2030 1988 1740 2013 2349 2394 2712 2516 2428 2470 2554 2611 2542 2507 2497 2433 2136 1635 1258
0 0 0 0 0 0 0 0 0 0 0 0 0 0 0 0 0 0 0 0 0 0 8 77 122 312 258 199 408 414 383 363 156 216 267 304 342 390 447 531 579 617 651 775 908 959 975 992 1044 1084 1087 1116 1241 1150 1076 1014 956 938 868 874 920 956 978 990 980 986 1103 1220 1309 1373 1438 1602 1703 1847 1861 1898 1877 1888 1906 2122 1934 1910 2224 2684 2896 2538 2557 2598 2668 2688 2670 2601 2660 2587 2426 2094 1628
0 0 0 0 0 0 0 0 0 0 0 0 0 0 0 0 0 0 0 0 0 0 0 0 47 114 292 194 184 377 387 143 159 134 229 246 283 362 402 453 447 509 547 692 841 934 1004 1031 1048 1113 1101 1115 1222 1222 1154 1050 970 918 864 808 824 836 844 880 897 924 1011 1130 1234 1326 1379 1534 1666 1764 1795 1916 1910 1906 1968 2068 2239 2087 2252 2422 2684 2688 2610 2686 2730 2708 2690 2602 2584 2548 2452 2246 1932
0 0 0 0 0 0 0 0 0 0 0 0 0 0 0 0 0 0 0 0 0 0 0 0 2 26 89 151 336 362 371 341 148 150 260 182 166 331 388 418 453 372 501 636 779 885 972 1026 1059 1110 1138 1138 1214 1258 1236 1178 1060 977 901 820 782 774 778 844 885 904 976 1054 1144 1220 1292 1487 1598 1699 1756 1855 1890 1940 2008 2033 2152 2208 2219 2298 2427 2602 2652 2651 2666 2635 2608 2573 2396 2388 2353 2247 2113
0 0 0 0 0 0 0 0 0 0 0 0 0 0 0 0 0 0 0 0 0 0 0 0 0 1 27 95 296 332 362 371 172 162 136 196 141 284 354 401 426 474 422 588 730 832 926 998 1051 1082 1142 1166 1211 1262 1286 1286 1216 1124 1016 901 802 874 804 837 900 933 970 1035 1090 1165 1220 1364 1530 1685 1754 1795 1886 1896 2009 2006 2151 2240 2250 2261 2345 2400 2591 2620 2632 2603 2606 2593 2447 2343 2313 2271 2171
0 0 0 0 0 0 0 0 0 0 0 0 0 0 0 0 0 0 0 0 0 0 0 0 0 0 6 26 166 256 326 357 363 176 158 130 169 272 316 368 405 444 477 485 669 791 865 948 1008 1053 1098 1143 1187 1241 1283 1323 1331 1273 1174 1044 907 834 850 861 912 954 1003 1042 1106 1149 1184 1198 1400 1578 1682 1782 1807 1859 1936 1947 1996 2176 2258 2243 2371 2397 2526 2572 2655 2684 2690 2658 2575 2421 2420 2390 2248
0 0 0 0 0 0 0 0 0 0 0 0 0 0 0 0 0 0 0 0 0 0 0 0 0 0 0 1 5 25 237 315 349 349 271 142 133 289 290 337 378 423 462 494 577 726 810 892 956 1013 1049 1092 1138 1195 1236 1294 1349 1348 1302 1208 1104 1001 964 904 917 970 1016 1055 1100 1125 1154 1146 1180 1387 1524 1617 1700 1801 1819 1854 1950 2104 2212 2291 2319 2395 2470 2551 2562 2644 2682 2675 2634 2520 2512 2499 2388
0 0 0 0 0 0 0 0 0 0 0 0 0 0 0 0 0 0 0 0 0 0 0 0 0 0 0 0 5 25 61 250 299 338 358 349 332 326 320 323 364 388 433 487 541 658 764 846 909 966 998 1021 1069 1125 1184 1230 1279 1302 1302 1272 1231 1170 1079 974 931 962 1016 1052 1072 1095 1098 1101 1080 1113 1329 1550 1602 1697 1757 1798 1830 1955 2105 2294 2378 2413 2433 2522 2523 2574 2617 2644 2640 2642 2717 2694 2593
0 0 0 0 0 0 0 0 0 0 0 0 0 0 0 0 0 0 0 0 0 0 0 0 0 0 0 0 5 19 44 92 252 316 344 360 382 368 371 365 352 374 411 465 526 624 716 793 866 928 970 987 1010 1070 1132 1173 1210 1235 1256 1265 1245 1200 1119 1033 963 954 979 1012 1048 1044 1048 1048 1041 1020 1196 1472 1549 1603 1705 2100 1810 1824 1973 2192 2410 2468 2494 2510 2514 2542 2599 2630 2688 2750 2815 2826 2783
0 0 0 0 0 0 0 0 0 0 0 0 0 0 0 0 0 0 0 0 0 0 0 0 0 0 0 0 4 18 36 56 85 247 316 342 385 401 399 412 394 379 400 432 484 559 650 746 817 875 930 962 993 1035 1096 1130 1154 1191 1210 1228 1202 1174 1134 1079 1016 977 983 994 1014 1026 1023 995 969 944 1157 1371 1488 1513 1600 1754 1828 1819 1872 2078 2266 2451 2550 2562 2503 2560 2564 2630 2718 2781 2821 2845 2842
0 0 0 0 0 0 0 0 0 0 0 0 0 0 0 0 0 0 0 0 0 0 0 0 0 0 0 6 14 16 18 30 54 97 137 251 370 404 420 428 422 397 400 430 460 508 641 714 818 828 882 936 973 1006 1125 1107 1118 1145 1173 1156 1162 1158 1143 1098 1031 1006 1001 1009 1012 996 980 948 934 891 986 1189 1404 1465 1523 1583 1729 1796 1818 1948 2126 2300 2444 2579 2506 2548 2546 2549 2640 2698 2746 2770 2817
0 0 0 0 0 0 0 0 0 0 0 0 0 0 0 0 0 0 0 0 0 0 0 0 0 0 0 5 23 32 29 28 39 68 126 172 226 385 418 439 436 401 392 408 417 474 604 682 754 806 856 910 955 990 1028 1074 1098 1130 1139 1146 1134 1133 1142 1107 1061 1046 1040 1032 1028 1014 982 954 906 887 953 1136 1298 1425 1470 1538 1618 1750 1794 1856 1986 2194 2317 2466 2514 2529 2502 2515 2542 2581 2637 2687 2713
0 0 0 0 0 0 0 0 0 0 0 0 0 0 0 0 0 0 0 0 0 0 0 0 0 0 0 0 13 41 54 46 48 65 108 174 231 269 406 430 439 430 239 299 346 431 536 622 723 802 839 891 929 968 1000 1048 1093 1119 1140 1138 1121 1120 1126 1117 1092 1096 1091 1086 1074 1055 1032 979 919 909 981 1160 1261 1376 1454 1485 1558 1644 1757 1809 1894 2032 2168 2340 2435 2485 2492 2438 2454 2487 2572 2591 2599
Wind_Speed
nan 9 nan nan nan nan 2 5 nan nan nan nan nan nan 7 9 11 13 15 15 14 17 14 6 nan nan 8 8 nan 5 8 nan 10 nan nan nan 5 10 7 6 7 7 6 4 5 6 9 6 6 8 8 8 8 7 5 4 4 3 2 1 0 0 2 3 4 4 4 4 4 4 5 5 5 6 6 6 6 6 5 6 7 7 6 6 5 4 3 2 2 2 3 3 4 4 4 1 1
6 nan 5 5 5 nan nan 3 nan nan nan nan nan 6 11 13 14 18 17 17 15 14 10 4 3 7 8 3 3 1 9 9 9 8 7 3 3 4 8 8 8 9 5 4 4 6 9 6 6 8 8 9 7 6 5 4 2 2 1 0 1 1 2 4 4 3 4 4 4 5 6 6 6 7 7 7 7 6 6 7 6 6 5 5 4 3 2 2 2 2 2 5 4 2 5 3 4
6 8 6 7 6 8 7 4 nan 6 nan nan 11 12 14 15 16 16 14 16 11 9 8 5 4 7 6 2 4 7 10 7 3 6 4 5 7 8 7 8 8 8 6 5 4 6 8 6 6 8 9 8 7 6 5 3 1 1 1 1 2 2 3 4 4 4 4 4 5 5 7 7 8 8 7 7 8 7 7 6 6 6 5 5 4 4 4 4 4 4 3 2 3 4 5 5 8
7 9 9 9 8 10 nan nan 10 10 9 13 18 17 17 17 16 13 12 14 8 6 7 4 3 10 6 4 4 3 5 7 9 8 5 10 8 7 7 8 7 6 5 5 4 6 8 6 6 7 9 8 7 7 5 3 2 1 1 1 3 4 5 5 4 4 4 5 5 5 6 7 8 7 6 7 6 7 6 6 6 7 7 6 5 5 4 4 4 3 1 1 2 3 4 8 7
nan nan 10 11 9 8 10 11 11 11 12 16 20 19 18 17 12 11 13 10 6 5 6 6 7 9 6 3 6 6 9 2 5 9 4 7 3 6 6 6 6 6 5 3 4 6 7 7 7 8 8 7 7 7 6 4 2 2 1 2 3 4 5 6 5 5 5 5 5 5 6 7 9 8 8 8 8 8 8 8 5 4 6 6 6 5 4 4 3 2 1 1 3 3 3 2 1
7 10 12 11 12 10 10 12 13 15 18 16 20 19 16 16 12 10 6 6 6 5 4 1 5 5 7 8 8 5 7 7 9 7 6 5 7 7 6 5 5 5 4 3 4 6 6 7 8 8 8 7 7 7 6 5 3 1 2 3 3 4 6 6 5 5 5 5 4 4 5 6 8 9 8 8 8 9 9 8 7 6 5 6 5 7 6 4 3 1 0 1 2 2 0 1 2
8 8 11 12 14 12 12 14 nan 19 21 15 17 16 14 12 10 6 5 6 11 8 10 4 2 3 4 8 5 4 9 6 8 7 4 8 6 6 7 5 5 5 5 3 4 5 6 9 9 8 8 7 7 7 6 4 3 3 3 3 3 4 5 6 7 6 6 5 5 5 6 7 7 9 10 10 9 8 8 6 4 2 2 3 3 0 4 3 1 0 1 2 3 2 1 0 2
10 10 8 10 12 11 13 17 21 15 18 14 15 11 11 10 7 7 6 8 6 6 5 2 2 3 7 7 6 7 4 7 5 7 6 9 7 5 6 6 4 4 4 3 4 5 8 10 9 9 8 8 7 7 6 3 2 4 3 3 4 5 5 7 7 6 8 7 5 5 6 6 8 9 9 9 8 7 5 5 5 4 3 2 2 3 1 1 1 1 1 2 3 2 1 2 1
8 10 6 11 11 10 14 16 18 15 17 14 12 10 7 7 6 5 7 11 8 6 2 3 5 1 6 3 6 7 6 4 6 11 10 10 9 6 5 6 5 4 4 4 4 6 6 9 10 10 9 7 6 5 3 2 3 4 4 4 4 5 6 6 7 7 8 8 6 6 7 8 8 8 9 9 8 7 6 6 6 6 4 3 3 2 1 0 0 1 2 3 6 3 2 2 1
7 9 7 9 10 13 14 nan nan 15 13 12 9 6 4 6 5 6 3 3 8 1 4 5 5 0 3 2 5 9 8 8 9 11 9 10 9 6 7 7 6 6 4 4 5 5 7 9 11 9 9 8 6 5 3 1 4 4 4 5 5 5 7 6 8 8 9 9 7 6 7 7 8 8 9 10 8 7 6 5 6 6 5 3 2 1 2 0 1 2 2 3 6 3 3 3 1
7 7 10 11 11 nan nan nan 14 nan 11 10 9 5 4 3 3 4 6 2 7 2 4 4 8 3 1 3 7 9 9 11 13 14 11 10 10 8 6 7 6 6 4 4 5 5 7 6 10 10 9 8 6 4 2 2 4 4 5 5 6 7 8 8 9 8 9 9 9 8 8 8 8 8 9 9 8 7 6 5 3 4 3 3 1 1 2 1 1 2 2 3 4 4 3 2 3
9 8 7 11 13 nan nan nan 12 12 9 9 8 5 7 1 2 1 1 3 3 4 0 0 1 1 4 2 7 8 9 11 12 13 11 9 8 7 6 6 6 4 3 3 4 5 6 5 5 8 10 9 7 5 4 3 4 5 5 5 7 10 10 10 11 11 10 11 11 10 10 8 8 8 9 9 8 8 6 3 1 2 4 2 0 1 1 3 3 4 3 2 2 1 2 2 4
10 9 8 9 10 nan nan 12 11 7 9 9 5 4 5 1 2 3 3 2 1 3 2 4 7 4 3 4 4 6 9 9 11 14 12 8 7 5 5 5 5 3 2 3 4 5 5 5 5 7 8 9 7 6 4 4 5 6 7 7 9 9 10 10 11 12 12 12 12 12 11 11 10 10 10 10 9 10 5 5 3 5 5 3 1 4 5 6 6 6 5 3 3 2 2 2 3
8 10 8 9 9 11 11 11 nan 6 nan 7 5 2 3 2 2 4 4 3 3 3 3 5 4 2 3 2 2 6 7 9 11 13 11 9 5 5 6 5 4 3 2 2 4 5 5 5 6 8 7 8 9 9 6 4 6 7 8 9 9 9 10 10 10 11 11 12 11 10 11 11 12 11 11 9 7 7 7 7 5 4 5 5 5 6 7 7 7 7 6 5 5 5 4 4 4
8 9 9 9 12 11 10 nan 8 nan nan 3 2 1 2 6 1 2 4 4 2 3 4 2 1 2 7 8 6 8 8 10 11 11 11 9 5 5 5 5 4 3 3 3 4 5 5 6 8 9 8 9 10 12 12 10 6 8 9 10 10 10 9 9 9 10 10 10 10 9 9 9 8 9 7 7 9 8 7 9 8 7 8 8 8 8 8 8 8 7 7 7 7 7 6 6 5
8 10 8 10 11 9 nan nan nan nan nan 3 3 3 5 7 4 3 2 2 4 4 5 0 3 4 4 6 4 9 9 9 9 9 10 9 4 3 4 5 4 4 4 4 5 6 5 6 10 10 9 9 11 11 12 13 10 9 9 10 10 11 10 11 11 11 12 12 12 12 12 13 12 12 10 11 10 9 10 11 11 10 9 10 10 9 9 9 9 9 9 9 8 8 8 7 6
7 10 10 7 12 nan nan nan nan nan nan 5 3 1 0 2 6 6 5 6 9 6 3 2 1 5 6 1 10 12 10 7 7 8 8 6 3 4 4 5 5 5 6 4 5 6 5 7 11 11 11 10 10 11 13 13 12 10 11 10 11 12 13 13 14 14 15 15 15 15 16 17 16 17 15 14 12 15 11 12 14 13 11 11 11 10 9 9 10 10 10 10 9 9 9 8 7
6 7 8 11 10 10 nan nan nan nan 4 2 3 3 5 2 4 4 6 8 7 3 5 6 10 8 5 7 11 12 12 8 8 7 6 6 3 4 5 6 5 6 6 5 6 6 6 8 11 12 12 11 11 12 13 14 13 12 15 15 16 16 16 16 18 19 18 21 16 17 18 18 18 17 16 14 17 15 15 15 15 15 13 13 11 10 10 10 10 10 10 10 9 9 8 10 9
6 7 6 8 7 9 nan nan nan nan 7 1 3 4 1 2 5 2 4 4 7 2 4 7 8 9 9 9 11 13 14 9 8 6 8 9 5 6 5 6 6 5 6 6 7 7 7 8 11 12 13 13 11 12 13 14 13 14 15 16 17 17 19 18 19 19 20 19 19 17 18 18 18 18 18 17 16 15 14 15 15 13 13 12 10 9 10 10 10 10 10 10 10 7 8 9 9
5 8 5 5 5 9 nan nan nan nan 3 3 2 6 6 1 2 1 2 4 6 5 3 5 7 9 9 8 9 11 12 9 8 6 8 8 6 5 5 6 5 6 6 6 7 9 7 9 11 13 14 14 13 13 14 14 14 14 15 16 17 17 18 18 17 18 18 18 18 18 18 18 18 19 19 19 16 15 15 15 14 12 12 11 8 10 10 9 8 9 9 8 7 9 9 9 10
8 8 4 6 5 6 10 7 nan nan 6 5 3 6 7 1 2 3 4 4 5 4 8 12 13 12 12 11 9 10 12 9 8 7 6 6 4 4 4 5 5 5 6 6 8 9 9 9 10 12 14 14 13 14 14 15 15 14 15 16 16 17 17 17 17 17 17 17 17 17 17 17 17 18 18 17 17 15 13 14 13 14 12 12 11 9 9 9 7 9 9 7 8 7 8 9 9
14 4 8 10 13 8 11 nan nan nan 9 9 7 3 4 4 5 1 8 3 5 10 11 8 11 16 16 13 10 9 10 9 8 7 8 9 8 7 5 4 4 6 6 7 7 8 9 9 10 12 13 13 13 13 13 15 14 14 15 16 16 17 17 17 17 17 17 17 16 16 16 16 16 17 17 16 15 15 14 13 12 11 10 11 11 11 11 10 9 8 8 8 8 8 8 9 9
10 11 7 8 12 15 12 13 nan nan nan 10 6 5 9 3 3 3 6 9 3 2 7 11 14 14 17 15 11 8 9 9 8 8 7 6 5 5 5 4 3 4 7 7 7 9 9 10 10 10 12 13 12 12 13 14 14 14 15 16 15 16 16 17 17 17 17 16 16 15 15 15 15 16 16 15 14 13 13 13 12 11 11 11 11 11 13 12 11 9 7 9 9 9 9 9 10
9 10 15 11 11 11 15 17 14 11 nan 6 12 nan 3 2 2 2 8 4 6 4 9 12 12 10 13 16 15 13 11 10 9 7 8 8 7 6 4 3 4 6 7 7 8 8 9 9 10 9 11 12 12 12 12 13 13 13 14 15 15 16 16 16 17 17 16 16 16 15 14 14 14 14 16 15 14 13 15 13 13 13 13 14 13 13 14 13 12 8 7 9 12 11 10 10 10
7 9 11 14 16 15 16 13 13 11 nan nan 11 4 4 5 1 4 12 2 4 7 11 13 13 12 12 15 15 11 8 6 5 5 4 4 3 1 2 4 5 5 6 7 8 8 8 9 9 10 10 10 11 12 12 12 12 13 14 14 15 16 16 16 16 15 15 16 15 14 14 14 13 14 15 15 14 16 17 16 15 17 16 16 15 15 14 15 12 8 11 13 12 11 10 11 11
9 6 21 19 18 18 16 16 nan nan nan nan nan 6 nan 7 12 4 7 1 6 9 11 13 12 12 14 15 16 13 10 10 5 5 6 4 3 3 4 4 4 5 6 6 7 8 8 8 8 9 10 10 10 11 12 12 11 12 13 14 14 16 16 15 14 15 15 15 15 14 14 14 14 14 16 16 16 18 18 17 17 17 17 16 15 16 15 14 11 10 12 13 11 10 10 11 11
nan 21 17 16 nan 17 16 15 nan nan nan nan 7 6 nan 9 8 12 7 1 10 10 9 11 12 14 14 14 14 13 11 11 9 4 3 3 3 5 4 4 4 5 5 6 7 8 8 7 8 9 10 10 10 10 11 11 11 12 12 13 14 15 14 14 14 14 14 15 15 14 14 15 15 15 16 17 17 17 16 16 17 16 16 16 14 15 13 13 10 11 11 13 11 9 10 10 10
nan nan nan nan nan 13 12 11 11 12 nan nan 8 5 nan nan 11 12 nan 3 10 9 7 9 10 12 13 14 14 12 10 8 3 3 6 4 4 5 5 5 4 4 4 5 7 7 7 8 7 8 9 10 10 10 11 11 11 11 12 13 14 14 12 13 13 13 15 16 16 15 16 16 17 16 17 17 16 15 15 15 16 15 16 15 13 13 13 12 9 13 13 12 10 10 11 10 9
nan nan nan nan nan 18 12 10 10 10 nan nan nan 11 9 nan nan nan nan 4 8 9 7 8 10 10 11 12 12 12 10 8 5 4 7 4 3 5 5 6 5 4 7 5 5 5 6 6 7 8 9 10 10 10 10 11 11 11 11 12 13 12 12 12 13 14 15 16 17 17 17 17 17 16 16 16 16 14 14 15 15 15 15 14 13 13 13 12 10 11 12 12 12 12 12 11 9
nan nan nan nan nan nan nan 11 10 nan 13 nan nan 9 7 nan nan nan 4 2 6 9 6 6 6 8 8 11 11 11 10 10 8 7 5 3 2 3 5 6 6 7 7 7 6 5 6 7 8 9 8 10 11 11 11 11 11 11 11 11 11 11 11 12 13 14 15 16 17 18 17 17 17 16 15 16 15 14 14 15 15 15 14 13 12 12 13 12 9 10 14 13 14 14 14 12 11
nan nan nan nan nan nan nan nan 12 nan nan nan 15 11 nan 9 nan 7 3 5 7 8 8 8 6 7 8 11 11 12 13 14 13 9 6 4 2 2 3 4 5 6 7 7 5 4 4 5 6 8 8 9 10 11 11 11 11 11 11 10 11 11 11 12 13 13 15 16 17 18 18 17 17 16 15 15 15 14 14 14 15 15 13 12 12 12 12 12 11 10 14 15 16 15 14 14 13
nan nan nan nan nan nan nan nan 15 nan nan nan 14 14 10 11 nan 6 4 4 6 6 8 10 7 6 9 11 12 12 13 14 13 11 8 6 4 2 1 1 3 5 4 4 6 6 5 5 5 6 6 7 10 11 11 11 11 11 10 10 10 10 11 12 13 13 14 16 17 17 17 17 16 16 14 13 14 14 14 14 15 14 13 12 12 12 12 14 11 11 14 15 16 16 15 16 14
nan nan nan nan nan nan nan nan nan nan nan nan 11 nan nan 18 nan 9 6 5 3 4 7 10 9 8 10 12 12 12 11 12 13 13 10 6 4 3 2 1 2 4 6 5 4 5 6 5 4 4 4 6 8 9 10 10 10 10 10 10 9 10 11 12 13 13 14 15 16 16 16 16 16 15 14 13 13 14 13 13 14 13 12 13 12 13 14 13 13 13 13 14 14 17 16 18 nan
nan nan nan nan nan nan nan nan nan nan nan nan nan nan 17 19 nan 10 7 4 1 3 8 9 8 6 8 10 12 13 14 13 15 14 12 7 3 2 3 2 2 3 5 5 4 4 4 5 6 6 6 5 7 8 8 8 9 9 9 9 9 10 12 12 12 13 14 15 15 15 14 15 15 14 13 12 13 13 12 13 12 12 12 12 12 12 13 12 12 13 14 15 16 15 17 nan nan
nan nan nan nan nan nan nan nan nan nan nan nan nan nan nan 21 16 11 5 2 3 4 7 9 8 7 6 7 11 14 15 16 16 13 12 8 4 2 2 2 2 2 5 4 6 7 7 7 7 6 6 5 6 6 7 7 7 8 9 9 10 11 12 13 13 13 14 14 14 14 13 13 14 14 12 11 12 13 12 12 12 12 12 12 12 13 13 13 12 13 15 15 15 16 nan nan nan
nan nan nan nan nan nan nan nan nan nan nan nan nan nan 9 nan 16 11 7 3 1 1 3 4 6 6 5 6 9 13 15 17 13 11 11 8 4 1 2 3 3 3 4 5 5 5 5 5 6 6 6 5 5 5 6 6 6 7 8 9 11 13 13 13 14 14 14 14 14 13 12 12 13 13 12 10 11 12 11 12 13 12 13 13 14 14 14 15 14 14 14 14 14 13 12 nan 12
nan nan nan nan nan nan nan nan nan nan nan nan nan nan nan nan 13 10 6 7 7 4 1 1 3 5 4 5 8 13 15 17 12 12 11 10 7 2 1 3 3 3 3 3 4 3 3 3 3 2 4 4 4 4 5 6 6 7 9 9 11 12 13 14 15 15 14 14 14 12 12 12 12 12 11 9 11 11 11 11 12 12 13 14 14 16 15 15 15 14 14 14 14 nan nan nan 10
nan nan nan nan nan nan nan nan nan nan nan nan nan nan nan nan 13 12 13 10 3 1 2 3 4 5 4 7 8 12 15 8 9 10 11 10 8 5 1 2 2 0 2 2 2 2 3 3 2 3 5 4 3 4 5 6 7 7 7 9 10 11 12 12 14 14 14 13 13 12 12 12 12 11 10 9 10 11 10 11 12 13 12 13 14 13 14 14 14 14 14 13 15 nan nan 12 10
nan nan nan nan nan nan nan nan nan nan nan nan nan nan nan nan 15 17 13 5 4 4 5 5 4 4 3 5 8 9 8 11 11 13 12 11 11 8 3 1 2 1 2 2 2 4 4 4 4 4 4 4 4 3 4 4 5 7 7 9 9 10 11 12 12 12 11 12 12 12 12 11 11 10 9 8 8 10 10 11 13 12 12 12 13 14 13 15 15 16 15 13 13 14 12 nan 10
nan nan nan nan nan nan nan nan nan nan nan nan nan nan nan nan nan 18 11 7 9 7 7 7 4 3 5 8 7 6 11 12 14 14 13 12 12 9 5 2 1 2 3 3 3 2 5 5 5 3 4 5 5 3 2 2 3 5 7 8 8 9 9 9 10 9 10 11 12 12 12 11 10 9 8 7 7 8 8 11 11 11 12 12 13 13 14 15 15 16 15 14 11 nan nan 13 11
nan nan nan nan nan nan nan nan nan nan nan nan nan nan nan nan nan nan 22 20 22 18 17 17 14 10 7 8 7 7 12 14 13 13 12 12 13 12 10 4 1 1 1 1 3 3 6 3 4 3 5 5 6 5 3 1 1 4 6 8 8 9 10 8 9 10 10 11 11 11 11 9 9 9 8 7 6 7 7 8 9 10 10 11 11 13 14 15 15 17 16 14 13 11 nan nan 13
nan nan nan nan nan nan nan nan nan nan nan nan nan nan nan nan nan nan 21 24 21 21 18 14 11 10 11 9 8 8 12 12 14 16 15 13 11 9 8 6 3 2 1 2 4 5 6 7 6 6 8 7 7 6 4 2 2 3 4 6 8 10 11 10 10 10 9 9 11 9 8 8 7 8 7 7 6 5 6 7 8 8 9 10 11 12 12 11 13 15 16 15 15 13 nan nan nan
nan nan nan nan nan nan nan nan nan nan nan nan nan nan nan nan nan nan nan 23 16 21 14 11 12 12 9 9 9 9 10 11 12 11 10 10 10 9 9 8 5 2 3 5 6 6 6 8 7 7 7 8 8 7 4 3 2 3 4 5 7 8 9 10 10 9 8 8 8 6 7 6 7 6 7 6 6 5 6 7 8 8 8 9 10 10 12 13 12 14 13 14 15 11 8 nan nan
nan nan nan nan nan nan nan nan nan nan nan nan nan nan nan nan nan nan nan nan 19 20 14 12 13 12 10 9 8 8 9 11 12 13 12 12 12 13 12 10 6 3 3 5 5 6 5 6 8 7 9 8 8 7 4 3 3 3 3 4 5 6 7 8 8 8 7 6 6 6 5 6 6 7 7 7 7 6 6 7 8 8 9 9 9 10 13 12 10 11 12 14 12 12 11 10 nan
nan nan nan nan nan nan nan nan nan nan nan nan nan nan nan nan nan nan nan nan nan 20 13 13 11 10 11 8 5 5 7 9 10 11 12 12 12 12 10 9 7 1 3 4 5 6 7 8 8 8 7 7 7 4 4 3 4 4 3 2 2 4 6 8 7 7 6 5 5 6 6 6 7 8 9 10 10 9 8 9 10 10 10 9 9 10 12 12 12 10 10 11 12 12 13 11 8
nan nan nan nan nan nan nan nan nan nan nan nan nan nan nan nan nan nan nan nan nan nan 14 14 11 9 9 7 2 0 2 6 9 10 9 8 8 8 9 7 3 2 2 5 7 8 8 9 8 7 6 7 6 3 4 3 3 4 3 1 3 4 5 8 8 7 6 5 5 5 6 7 9 10 12 13 13 13 12 11 11 12 12 10 9 10 11 12 12 12 12 11 11 12 12 12 13
nan nan nan nan nan nan nan nan nan nan nan nan nan nan nan nan nan nan nan nan nan nan nan nan 18 15 13 9 2 5 6 3 7 8 8 6 5 6 7 7 6 3 2 5 6 7 8 7 7 6 5 7 6 4 4 3 3 4 2 0 4 4 4 7 8 9 8 7 6 6 6 9 10 12 12 14 14 14 14 13 13 14 12 11 11 10 12 13 13 14 13 11 11 12 11 12 12
nan nan nan nan nan nan nan nan nan nan nan nan nan nan nan nan nan nan nan nan nan nan nan nan nan 14 12 10 7 5 5 5 7 8 6 3 1 4 7 9 8 6 3 4 6 7 7 7 8 6 6 6 7 6 5 4 5 3 2 1 3 4 5 7 6 7 8 8 8 7 9 10 11 12 11 12 12 12 13 14 14 14 14 14 15 13 12 12 12 13 13 13 13 13 11 10 12
nan nan nan nan nan nan nan nan nan nan nan nan nan nan nan nan nan nan nan nan nan nan nan nan nan nan nan 6 3 2 3 6 8 7 6 4 4 6 9 10 9 8 6 5 5 6 7 7 6 6 5 5 7 7 6 5 5 4 3 0 2 5 6 7 6 7 7 8 9 10 10 12 11 11 11 10 11 11 11 13 14 15 15 16 16 16 15 15 15 15 16 16 15 15 14 12 11
nan nan nan nan nan nan nan nan nan nan nan nan nan nan nan nan nan nan nan nan nan nan nan nan nan nan nan nan 5 2 3 7 7 6 5 4 4 5 7 8 9 8 8 7 6 5 7 8 7 6 5 6 7 8 7 6 5 5 4 3 3 6 7 7 8 7 6 6 7 8 9 11 10 10 9 11 10 9 10 12 13 14 15 15 16 17 17 17 17 18 19 19 20 18 15 16 15
nan nan nan nan nan nan nan nan nan nan nan nan nan nan nan nan nan nan nan nan nan nan nan nan nan nan nan nan 10 6 5 7 8 8 4 3 4 4 5 6 6 7 9 8 5 5 6 7 7 6 6 6 6 7 8 7 8 7 6 5 5 8 8 8 8 8 7 6 7 7 8 10 10 10 10 10 7 8 8 8 10 11 12 12 13 14 14 15 17 17 18 20 20 18 19 17 16
nan nan nan nan nan nan nan nan nan nan nan nan nan nan nan nan nan nan nan nan nan nan nan nan nan nan nan nan nan nan 10 8 9 9 6 4 3 2 1 3 4 5 8 7 7 5 5 6 7 7 7 8 8 8 9 8 9 10 8 6 6 7 9 9 10 10 10 9 8 7 8 8 9 9 9 6 6 5 6 6 6 8 8 8 10 11 12 12 14 15 15 16 18 16 19 20 19
nan nan nan nan nan nan nan nan nan nan nan nan nan nan nan nan nan nan nan nan nan nan nan nan nan nan nan nan nan nan nan 10 9 8 8 6 6 4 1 3 3 5 6 8 7 6 6 7 7 7 9 10 9 9 9 11 11 10 8 8 8 9 8 8 8 8 8 10 9 9 9 8 7 7 6 5 3 3 3 3 4 4 5 5 5 7 8 9 10 11 12 14 15 15 16 19 18
nan nan nan nan nan nan nan nan nan nan nan nan nan nan nan nan nan nan nan nan nan nan nan nan nan nan nan nan nan nan nan nan 7 5 6 8 6 4 2 1 3 6 8 7 7 6 6 7 7 8 9 9 10 10 11 12 12 11 10 9 10 10 10 9 11 11 12 12 10 10 10 9 7 6 5 4 2 1 1 1 2 2 1 1 3 4 5 7 8 8 9 10 11 11 13 13 15
nan nan nan nan nan nan nan nan nan nan nan nan nan nan nan nan nan nan nan nan nan nan nan nan nan nan nan nan nan nan nan nan nan 11 13 14 12 11 7 1 2 3 4 5 6 6 6 7 8 8 7 8 11 14 15 16 14 15 14 12 12 13 13 13 14 14 14 12 9 9 8 8 9 7 5 4 4 4 3 2 1 1 2 2 2 3 4 5 7 7 9 9 9 10 10 12 12
nan nan nan nan nan nan nan nan nan nan nan nan nan nan nan nan nan nan nan nan nan nan nan nan nan nan nan nan nan nan nan nan nan nan 12 13 13 10 5 1 1 3 4 4 5 5 6 6 8 8 9 12 14 13 15 14 14 16 16 16 15 15 15 15 15 14 14 12 11 10 10 10 8 8 6 5 5 5 6 5 5 4 4 4 4 4 5 6 7 6 8 8 9 10 10 10 10
nan nan nan nan nan nan nan nan nan nan nan nan nan nan nan nan nan nan nan nan nan nan nan nan nan nan nan nan nan nan nan nan nan nan 9 9 13 12 8 5 4 7 9 8 4 3 4 6 7 8 9 10 11 13 14 15 16 15 15 14 15 16 15 16 15 15 14 14 14 13 11 10 12 9 8 7 5 5 7 7 6 6 5 5 5 5 6 6 6 6 7 8 9 10 10 8 8
nan nan nan nan nan nan nan nan nan nan nan nan nan nan nan nan nan nan nan nan nan nan nan nan nan nan nan nan nan nan nan nan nan nan 5 7 12 14 12 12 13 13 11 6 3 3 4 5 6 8 9 9 10 13 14 14 15 14 13 14 15 17 16 17 15 15 15 15 15 14 13 13 9 9 9 8 7 8 8 8 8 7 7 6 5 5 7 7 6 6 6 7 8 9 8 7 7
Wind_Direction
nan 10 nan nan nan nan 60 81 nan nan nan nan nan nan 96 117 104 100 122 133 143 132 132 157 nan nan 124 110 nan 116 107 nan 119 nan nan nan 42 345 15 360 332 323 346 49 62 65 65 30 14 356 359 359 354 344 344 330 301 275 250 245 265 87 97 85 76 78 87 96 102 110 122 129 135 137 136 140 135 130 134 119 112 115 113 112 111 117 131 129 119 144 228 241 233 246 246 157 104
23 nan 31 40 25 nan nan 62 nan nan nan nan nan 131 113 107 107 103 106 121 131 123 117 133 124 159 155 283 16 66 138 137 118 115 124 97 23 18 12 356 343 332 351 25 39 60 85 49 20 9 6 3 354 343 330 326 298 289 293 64 93 97 93 91 82 89 99 111 120 128 131 137 144 141 145 142 135 127 117 116 116 108 114 114 111 115 119 126 126 148 208 242 227 253 313 20 56
38 33 47 72 84 88 117 136 nan 109 nan nan 123 110 114 112 112 113 108 115 123 123 113 139 182 143 114 44 106 112 95 122 101 96 96 22 352 60 19 356 348 335 342 16 33 68 86 59 26 18 10 6 354 337 345 342 313 316 339 72 90 98 97 87 94 112 112 123 131 139 143 145 144 146 148 143 135 134 124 121 130 125 122 118 115 116 128 135 143 140 199 294 353 345 360 27 24
55 59 49 54 68 92 nan nan 93 102 124 117 120 113 107 112 114 109 102 122 121 116 111 99 115 113 83 78 79 143 123 85 80 14 31 35 69 39 25 351 350 340 344 12 31 66 87 35 32 27 14 7 352 337 348 351 345 1 61 100 101 114 105 103 108 126 131 127 131 139 143 142 143 140 137 120 124 121 128 132 154 150 135 131 124 123 131 132 122 129 124 34 48 33 30 31 32
nan nan 72 71 83 87 91 95 106 102 108 110 112 108 107 113 114 102 100 111 103 100 97 135 154 144 128 107 92 84 63 102 54 88 26 91 61 22 20 357 355 341 343 12 34 61 77 17 29 22 14 7 353 343 349 353 19 48 42 87 103 104 104 102 108 118 122 125 128 136 140 146 146 143 141 138 143 150 154 162 154 118 139 134 129 132 136 124 120 134 123 15 356 33 47 48 24
88 78 83 100 84 97 100 106 100 101 100 105 105 109 109 110 116 114 112 110 118 126 98 147 132 113 133 118 103 63 11 33 35 84 22 61 18 4 6 15 360 347 344 28 58 84 84 18 17 16 15 9 356 342 353 357 4 49 93 108 125 109 92 98 107 106 106 110 116 126 134 149 150 142 139 145 156 168 165 170 161 176 141 133 146 162 161 135 122 110 182 286 234 233 190 94 41
72 79 86 91 91 85 99 104 nan 104 109 101 108 111 103 110 123 123 127 148 148 165 132 130 243 193 132 93 99 69 74 7 5 39 70 345 12 358 359 32 2 346 353 44 75 89 70 15 16 12 12 11 356 346 348 359 27 52 62 99 102 92 106 111 108 113 111 115 124 143 159 159 157 150 149 152 166 169 168 162 154 140 139 148 150 340 118 108 106 17 299 301 296 309 297 98 37
83 92 85 88 98 96 96 109 109 108 113 104 117 120 118 121 118 126 116 134 109 125 135 74 105 149 106 120 74 91 97 78 337 330 323 323 359 2 354 30 10 3 8 53 86 88 34 14 15 7 11 4 358 348 344 4 72 79 91 117 112 100 99 94 102 108 107 111 124 146 150 149 158 156 154 150 153 158 165 161 160 171 188 181 195 204 164 124 68 273 304 296 314 281 257 327 322
87 115 111 100 103 111 106 102 110 113 113 122 125 130 137 132 130 128 149 138 146 151 94 25 73 184 88 145 110 92 96 23 332 329 337 323 350 10 19 25 18 28 31 53 79 90 72 18 13 5 7 4 0 344 341 6 92 88 104 113 108 107 101 108 111 109 104 104 118 141 144 149 149 154 150 150 154 157 169 170 173 179 193 211 218 226 237 191 281 291 293 304 277 334 336 298 9
116 121 112 113 113 106 114 nan nan 113 112 124 130 133 124 126 147 149 146 156 139 144 160 176 165 256 16 115 80 90 57 5 345 333 341 333 349 20 7 17 13 5 35 68 82 88 85 19 9 5 8 8 8 356 352 14 94 97 112 111 116 108 105 104 102 101 101 107 113 115 120 125 132 141 145 142 144 150 160 170 181 179 182 180 236 250 265 252 310 308 312 315 315 322 310 264 177
119 111 118 113 109 nan nan nan 115 nan 121 131 145 146 138 152 163 151 129 146 142 157 206 213 193 301 57 110 108 89 31 0 353 345 349 338 351 14 17 28 16 6 27 53 80 88 83 59 11 5 11 16 19 9 26 51 73 84 100 104 112 106 101 101 103 100 96 97 100 99 103 116 129 137 141 136 146 149 163 178 169 163 146 112 266 289 270 173 353 6 346 335 328 330 284 241 201
130 126 134 117 104 nan nan nan 117 123 135 136 133 135 123 182 195 160 62 302 156 288 132 148 67 276 191 81 95 68 34 8 0 346 348 342 353 14 17 48 26 12 19 59 80 90 95 75 68 24 16 20 31 37 32 49 75 85 89 96 95 91 96 100 103 101 99 100 98 97 99 106 113 121 129 126 122 144 136 134 110 101 98 85 175 168 93 61 57 51 31 18 4 339 273 234 204
145 156 144 129 113 nan nan 123 119 131 138 124 118 117 131 233 88 352 9 278 158 298 101 156 310 146 142 102 89 59 36 17 4 349 345 347 351 21 26 37 38 17 28 82 81 81 96 95 91 79 53 23 44 62 56 47 69 71 69 66 78 83 88 95 100 104 105 103 98 98 99 94 92 93 94 105 119 103 105 82 60 59 83 84 58 58 59 61 60 60 59 56 68 101 145 183 195
149 157 174 135 137 123 121 121 nan 134 nan 122 144 119 103 135 90 350 331 328 9 30 166 309 316 273 222 268 46 50 60 21 4 354 344 334 352 17 12 34 38 49 65 71 75 79 102 102 100 91 74 86 100 90 85 71 75 78 73 78 72 75 78 82 92 93 96 95 94 87 90 95 98 100 98 94 99 114 124 131 137 124 107 111 94 80 71 71 72 72 75 78 83 95 111 139 157
137 166 167 154 136 143 124 nan 102 nan nan 124 127 360 136 147 251 313 339 299 302 247 288 246 63 291 44 2 17 24 34 23 10 357 333 330 342 6 12 33 51 83 94 70 71 76 96 105 102 102 101 102 105 118 120 102 79 87 89 93 87 82 86 86 86 92 94 93 92 91 87 83 80 79 96 113 110 111 125 131 124 111 103 97 93 87 84 82 84 83 82 80 83 89 102 112 124
145 161 168 161 137 140 nan nan nan nan nan 137 120 169 202 156 156 288 130 200 273 279 334 274 89 106 29 17 354 349 354 18 21 353 326 320 346 10 20 31 59 84 99 86 73 99 100 105 111 108 106 107 111 117 113 112 89 70 83 88 99 104 104 103 100 101 99 100 98 103 107 113 116 117 125 124 122 130 129 117 106 98 96 100 94 89 89 89 89 88 85 83 78 78 81 87 96
152 166 158 164 140 nan nan nan nan nan nan 160 119 74 190 115 148 167 194 259 288 318 151 174 61 162 359 189 321 324 336 10 27 343 316 316 14 49 55 66 78 90 105 96 88 104 98 104 109 110 107 108 109 112 111 112 107 95 97 93 94 100 105 106 106 106 108 108 113 113 120 124 127 124 127 125 131 116 116 118 107 100 96 87 87 85 86 86 84 83 82 79 81 82 77 77 84
175 149 158 143 142 146 nan nan nan nan 203 150 69 66 284 273 143 159 228 216 248 294 201 211 189 211 231 279 304 327 325 355 20 344 332 327 26 47 50 60 67 72 96 110 105 101 102 109 106 109 108 105 107 110 112 114 112 100 111 111 111 105 103 104 112 116 114 117 110 118 124 123 126 126 125 122 118 116 115 104 96 94 91 88 85 90 86 80 77 77 79 74 73 75 86 94 91
177 184 171 136 161 136 nan nan nan nan 155 262 119 111 355 356 317 116 233 265 294 292 195 235 232 241 262 287 322 339 329 352 19 359 342 343 13 19 45 61 69 93 99 110 115 98 109 115 112 108 107 106 106 109 112 115 110 114 111 114 109 105 106 111 113 112 118 116 117 116 119 123 124 123 117 111 107 110 107 102 101 100 95 91 90 81 81 76 79 81 74 73 68 77 92 92 91
164 192 177 129 167 158 nan nan nan nan 234 249 184 122 148 217 270 254 240 324 324 342 310 270 294 302 302 309 343 348 332 347 21 8 358 360 14 21 34 44 64 82 94 108 109 120 114 111 110 110 107 107 107 109 113 115 114 113 113 114 113 113 114 112 111 112 110 113 113 114 116 117 117 116 113 116 111 109 111 115 109 101 99 101 99 104 93 80 79 78 73 75 88 86 82 83 85
224 206 191 183 194 177 152 180 nan nan 301 279 218 175 174 127 213 326 295 270 35 18 11 349 339 327 320 331 351 359 338 347 18 16 15 13 28 64 46 53 71 103 117 125 133 119 116 115 118 116 114 111 109 110 111 111 113 111 113 112 112 113 114 112 110 110 108 110 112 113 114 113 112 111 111 109 110 107 104 103 108 107 110 114 114 99 102 102 99 97 100 90 74 73 78 77 78
213 177 199 190 207 200 156 nan nan nan 224 241 218 247 153 210 212 17 342 2 41 25 12 338 328 326 327 334 351 2 347 348 13 17 18 16 17 30 33 53 110 137 140 126 112 120 118 117 120 121 117 111 109 109 108 105 107 108 108 109 111 113 112 110 109 108 109 108 110 110 110 110 109 107 107 107 105 102 98 100 102 101 102 102 105 94 100 96 88 85 84 81 73 68 70 76 76
204 201 183 183 182 175 182 178 nan nan nan 218 226 168 222 306 200 55 24 39 125 186 322 315 331 339 334 327 338 0 353 354 10 18 17 20 37 56 49 68 90 118 128 126 128 127 118 121 125 127 118 117 115 117 115 112 111 111 110 108 108 108 110 109 107 109 109 106 106 106 104 106 105 104 105 103 103 98 93 94 95 94 93 92 91 92 95 96 95 89 91 93 83 70 66 71 70
209 202 223 208 206 147 157 159 173 198 nan 203 194 nan 219 270 270 70 63 81 225 283 301 307 318 332 339 336 350 357 360 360 8 17 23 20 18 28 44 67 113 145 140 132 125 122 118 115 125 128 126 122 123 121 117 115 116 114 111 107 110 105 108 107 107 108 108 105 102 102 102 99 95 94 97 101 101 96 94 91 92 95 90 88 89 88 90 95 94 108 118 87 91 81 68 69 66
228 202 217 199 197 187 179 168 164 178 nan nan 223 213 129 37 248 276 69 50 240 278 298 313 324 341 358 353 354 356 359 8 14 18 46 64 41 67 133 126 121 139 130 131 130 119 113 124 123 130 130 120 125 127 118 119 119 118 113 111 109 105 108 107 108 109 105 103 100 98 97 95 92 89 89 90 94 94 96 97 93 93 92 89 93 92 88 92 94 84 66 81 79 79 77 74 64
239 208 219 210 210 205 190 183 nan nan nan nan nan 164 nan 145 202 86 69 12 280 287 308 322 334 351 6 11 0 357 3 9 9 18 38 57 31 19 63 87 117 115 120 137 130 123 121 124 122 125 128 128 129 127 123 117 112 115 114 110 109 104 109 111 109 107 104 100 98 95 93 90 87 86 87 86 85 90 92 96 96 93 94 95 93 90 88 85 82 70 87 77 75 80 74 71 68
nan 220 207 193 nan 185 183 176 nan nan nan nan 248 192 nan 172 175 140 141 299 289 296 321 337 346 5 13 17 16 10 5 6 12 18 60 85 57 68 84 105 98 112 142 128 129 133 129 122 125 128 135 129 133 123 123 117 114 107 113 110 107 108 110 110 107 108 104 100 98 93 90 89 88 89 88 87 86 87 88 91 94 96 98 97 91 89 87 81 82 77 66 71 75 77 74 68 64
nan nan nan nan nan 196 191 193 163 196 nan nan 269 191 nan nan 158 131 nan 296 307 306 340 350 0 10 16 19 22 23 23 20 14 21 28 35 90 105 111 112 103 126 123 125 140 149 130 102 122 130 133 132 128 123 121 118 114 108 113 110 106 109 113 109 107 106 103 101 97 93 91 90 91 90 88 88 85 85 87 88 94 98 97 97 90 88 85 78 78 85 72 69 70 77 77 66 59
nan nan nan nan nan 192 206 206 197 222 nan nan nan 217 197 nan nan nan nan 309 316 314 347 354 4 11 14 21 29 33 28 22 27 30 39 54 112 128 107 122 127 134 147 144 156 148 114 111 114 129 134 129 122 115 116 118 121 120 119 112 112 110 108 110 104 103 103 100 98 95 94 92 93 91 89 85 84 81 81 83 87 88 91 92 91 87 84 77 53 68 76 72 76 70 70 64 54
nan nan nan nan nan nan nan 220 211 nan 206 nan nan 220 191 nan nan nan 184 295 305 306 331 354 4 9 19 26 34 35 31 27 32 30 35 45 74 107 116 133 140 148 161 163 167 135 139 146 144 147 133 122 117 119 119 116 115 117 119 120 117 113 110 105 102 106 103 101 100 98 96 94 95 93 87 83 82 78 76 75 76 80 82 85 88 86 83 77 65 56 76 69 65 63 66 66 59
nan nan nan nan nan nan nan nan 230 nan nan nan 267 232 nan 188 nan 183 209 296 318 330 335 347 359 11 25 33 36 34 30 33 32 30 34 38 64 110 114 154 140 142 172 171 139 144 148 149 154 150 130 122 120 116 112 111 114 113 117 118 116 111 110 103 103 105 103 103 103 101 96 95 92 89 85 80 79 77 75 73 73 73 75 77 83 85 79 87 80 59 51 57 64 68 71 68 60
nan nan nan nan nan nan nan nan 235 nan nan nan 264 223 209 191 nan 223 246 296 317 329 342 346 352 16 28 37 38 37 36 35 38 36 36 35 50 104 75 89 134 144 163 175 168 175 154 159 157 147 132 121 120 114 114 113 108 110 114 114 115 110 110 106 105 103 103 105 104 102 98 95 92 89 86 81 77 75 73 71 71 68 67 72 78 82 82 74 75 72 69 61 64 76 76 77 67
nan nan nan nan nan nan nan nan nan nan nan nan 281 nan nan 187 nan 235 251 299 331 319 350 353 352 9 25 38 43 41 38 39 41 40 38 46 74 121 123 108 147 152 175 187 186 187 170 164 161 149 131 121 120 114 116 118 117 111 110 109 106 107 106 106 105 105 105 105 105 104 101 98 96 92 88 82 77 74 72 71 70 66 67 70 74 77 76 76 65 64 67 71 76 79 80 79 nan
nan nan nan nan nan nan nan nan nan nan nan nan nan nan 222 199 nan 236 243 297 340 329 352 0 353 3 23 41 46 41 38 34 38 37 36 43 89 95 150 146 170 193 180 173 187 204 184 177 169 161 167 144 133 121 117 117 115 115 114 111 110 103 101 105 106 106 105 104 103 102 99 97 97 94 90 86 81 78 74 72 70 66 68 74 77 75 76 79 79 74 73 79 80 79 76 nan nan
nan nan nan nan nan nan nan nan nan nan nan nan nan nan nan 209 227 247 250 265 9 357 339 352 347 347 10 45 52 44 40 36 39 38 32 36 50 89 157 169 179 196 188 189 196 196 196 187 181 167 168 157 143 133 123 119 119 120 122 116 110 109 110 109 109 109 106 104 100 97 97 97 98 96 94 89 84 83 81 79 76 71 75 77 76 76 77 81 82 83 75 78 89 87 nan nan nan
nan nan nan nan nan nan nan nan nan nan nan nan nan nan 225 nan 225 227 221 240 347 346 321 336 336 333 356 33 53 52 46 42 41 34 34 43 57 93 165 181 175 184 195 205 211 209 204 200 190 183 172 166 162 144 128 118 119 111 109 122 120 114 114 113 113 110 108 102 100 98 100 99 98 97 95 90 83 82 81 82 79 79 80 80 77 79 82 84 81 82 80 76 90 99 95 nan 67
nan nan nan nan nan nan nan nan nan nan nan nan nan nan nan nan 227 230 221 211 196 208 302 343 323 327 347 26 48 52 46 44 38 30 31 38 40 59 168 196 180 187 198 219 223 222 227 217 222 201 191 189 160 142 133 126 119 128 131 117 109 112 112 116 116 113 109 106 102 104 104 102 98 96 98 92 82 81 80 83 83 84 83 84 84 84 87 86 87 86 84 90 88 nan nan nan 77
nan nan nan nan nan nan nan nan nan nan nan nan nan nan nan nan 213 225 217 219 191 101 62 51 12 357 353 12 38 53 53 57 40 38 35 37 44 41 60 186 190 212 180 230 224 220 226 218 203 210 215 199 164 150 148 139 135 127 121 113 115 115 115 112 110 111 108 110 109 108 107 102 98 98 101 92 85 77 76 80 81 80 81 84 87 96 95 91 87 87 84 94 101 nan nan 85 75
nan nan nan nan nan nan nan nan nan nan nan nan nan nan nan nan 203 220 230 205 144 96 58 59 33 31 55 45 46 58 60 46 36 36 34 39 35 33 51 129 159 138 218 235 198 202 208 206 195 210 206 218 196 177 170 139 139 130 116 124 106 115 116 113 111 110 112 110 110 108 106 103 100 103 102 97 86 79 76 78 81 84 83 86 89 90 91 87 85 80 78 80 94 103 96 nan 76
nan nan nan nan nan nan nan nan nan nan nan nan nan nan nan nan nan 210 209 183 162 142 133 152 152 63 67 59 55 71 61 47 36 31 30 37 39 38 46 78 150 197 212 226 231 206 196 200 210 212 208 215 211 204 189 142 109 124 124 131 117 107 114 123 120 123 112 114 107 107 108 104 102 101 100 95 90 80 73 75 82 83 84 84 83 85 86 86 85 84 82 83 83 nan nan 81 80
nan nan nan nan nan nan nan nan nan nan nan nan nan nan nan nan nan nan 184 178 183 181 181 178 166 147 142 157 153 111 64 50 41 32 27 33 42 43 40 54 171 177 199 237 266 239 194 202 217 223 214 216 211 219 233 228 126 128 134 143 132 127 142 130 137 128 118 117 120 113 104 106 102 98 96 88 81 72 71 74 76 81 85 86 87 86 86 83 80 80 76 75 74 75 nan nan 88
nan nan nan nan nan nan nan nan nan nan nan nan nan nan nan nan nan nan 197 200 189 202 201 174 159 171 187 161 114 106 94 75 47 30 23 24 36 51 58 52 68 125 158 195 226 231 209 196 202 211 209 209 211 223 244 247 88 102 130 129 125 126 128 145 133 121 126 119 109 127 122 109 102 100 96 89 81 73 64 67 72 78 82 87 86 87 90 94 85 81 78 72 71 82 nan nan nan
nan nan nan nan nan nan nan nan nan nan nan nan nan nan nan nan nan nan nan 204 195 213 207 169 171 180 166 139 134 107 87 82 71 54 31 17 20 38 50 49 55 95 168 204 214 226 223 206 202 207 209 209 215 221 235 211 160 143 121 124 134 135 131 132 133 128 117 127 146 126 116 118 105 96 97 89 82 72 61 63 67 71 75 79 88 90 88 84 84 83 86 80 77 79 83 nan nan
nan nan nan nan nan nan nan nan nan nan nan nan nan nan nan nan nan nan nan nan 207 217 203 189 189 176 144 139 135 118 100 85 71 51 32 20 10 18 31 40 44 61 214 219 215 223 235 225 215 208 203 208 216 222 221 199 172 165 170 156 155 141 119 115 119 122 136 160 142 131 122 113 107 101 96 89 81 72 56 57 62 64 64 67 73 74 78 82 87 87 81 83 84 77 74 72 nan
nan nan nan nan nan nan nan nan nan nan nan nan nan nan nan nan nan nan nan nan nan 214 207 205 196 171 146 140 129 115 100 93 84 70 45 23 11 13 22 36 44 27 217 221 217 218 223 222 224 217 207 207 210 229 214 188 182 189 196 201 143 122 116 127 148 151 147 154 147 143 118 117 111 103 97 88 82 74 68 55 55 59 60 61 65 68 74 74 69 68 70 76 76 77 76 78 79
nan nan nan nan nan nan nan nan nan nan nan nan nan nan nan nan nan nan nan nan nan nan 204 207 198 172 160 151 117 356 178 146 116 87 67 39 9 6 13 22 18 33 222 224 224 219 219 221 224 228 213 205 203 210 205 190 198 212 210 227 49 92 136 161 169 155 155 158 141 132 131 128 118 111 103 95 87 79 70 59 54 55 58 60 64 62 65 67 70 68 64 63 68 69 74 72 71
nan nan nan nan nan nan nan nan nan nan nan nan nan nan nan nan nan nan nan nan nan nan nan nan 197 181 173 158 165 263 255 202 133 111 86 59 3 351 347 355 7 348 233 243 238 228 225 227 229 230 213 203 200 190 197 189 206 222 223 317 57 91 154 181 175 163 170 167 153 143 130 126 121 109 108 97 88 79 71 62 55 56 58 61 62 57 59 62 65 65 65 61 61 61 66 68 77
nan nan nan nan nan nan nan nan nan nan nan nan nan nan nan nan nan nan nan nan nan nan nan nan nan 192 183 173 187 232 246 219 174 157 129 104 40 17 354 357 351 346 314 275 248 237 231 227 233 237 214 201 196 189 185 184 199 205 225 320 78 119 176 188 174 168 167 157 158 150 146 144 126 119 112 105 94 83 74 66 58 53 57 58 61 61 61 60 63 63 63 60 61 61 62 61 67
nan nan nan nan nan nan nan nan nan nan nan nan nan nan nan nan nan nan nan nan nan nan nan nan nan nan nan 155 144 214 226 237 222 173 161 147 68 36 15 2 350 344 344 326 292 257 238 230 241 250 227 208 196 194 183 181 191 196 217 228 113 162 179 192 186 178 181 170 169 165 158 141 144 136 125 112 100 83 78 68 60 56 59 61 62 61 62 59 59 61 60 58 56 53 53 51 56
nan nan nan nan nan nan nan nan nan nan nan nan nan nan nan nan nan nan nan nan nan nan nan nan nan nan nan nan 113 150 221 246 239 207 179 125 89 58 23 12 3 351 354 344 320 282 249 234 238 242 234 219 199 194 186 181 179 195 206 187 165 181 184 195 193 183 186 177 177 164 151 144 139 123 116 94 90 81 77 70 63 60 58 57 58 58 58 58 57 58 58 57 55 55 52 50 55
nan nan nan nan nan nan nan nan nan nan nan nan nan nan nan nan nan nan nan nan nan nan nan nan nan nan nan nan 142 146 197 236 246 233 208 118 86 54 26 22 14 7 1 350 333 301 265 251 249 245 229 222 209 196 189 179 185 195 200 183 175 187 192 194 187 182 181 178 178 170 155 149 135 122 108 102 97 78 72 68 63 63 59 54 54 55 56 54 54 55 55 56 57 52 49 49 53
nan nan nan nan nan nan nan nan nan nan nan nan nan nan nan nan nan nan nan nan nan nan nan nan nan nan nan nan nan nan 175 198 226 226 210 171 158 157 94 35 26 18 8 358 345 310 283 261 255 252 237 225 211 197 186 185 190 196 195 179 170 190 194 189 186 181 172 176 181 171 158 149 137 131 125 126 107 93 76 69 70 66 60 52 48 46 44 46 44 45 48 48 51 48 45 44 48
nan nan nan nan nan nan nan nan nan nan nan nan nan nan nan nan nan nan nan nan nan nan nan nan nan nan nan nan nan nan nan 185 205 218 215 212 203 177 84 25 25 16 13 7 348 325 302 263 250 247 232 221 216 200 188 188 193 196 185 174 178 191 192 185 177 169 171 182 183 172 166 152 149 142 141 147 132 109 97 87 81 73 56 50 37 31 27 27 25 30 34 36 42 39 40 41 41
nan nan nan nan nan nan nan nan nan nan nan nan nan nan nan nan nan nan nan nan nan nan nan nan nan nan nan nan nan nan nan nan 182 181 206 227 207 169 173 154 20 14 12 2 346 319 290 270 259 254 236 225 215 209 198 193 192 190 185 175 179 189 190 181 177 174 183 191 184 177 177 172 146 155 170 179 182 188 150 100 88 83 63 10 17 355 354 355 355 5 12 19 26 24 33 39 38
nan nan nan nan nan nan nan nan nan nan nan nan nan nan nan nan nan nan nan nan nan nan nan nan nan nan nan nan nan nan nan nan nan 186 194 202 192 186 187 149 31 1 351 351 330 308 283 264 255 256 251 228 221 211 204 196 191 188 185 180 186 192 190 186 183 182 187 187 184 183 176 168 181 187 192 207 226 232 246 241 223 217 254 295 297 317 316 319 329 334 357 3 359 3 16 30 33
nan nan nan nan nan nan nan nan nan nan nan nan nan nan nan nan nan nan nan nan nan nan nan nan nan nan nan nan nan nan nan nan nan nan 204 194 184 181 171 162 313 329 323 305 308 300 317 288 262 245 233 224 221 218 214 204 193 190 187 186 189 195 195 191 187 187 185 184 187 189 186 193 187 203 205 222 228 237 249 257 247 248 256 264 278 287 293 304 307 319 321 341 338 343 359 17 25
nan nan nan nan nan nan nan nan nan nan nan nan nan nan nan nan nan nan nan nan nan nan nan nan nan nan nan nan nan nan nan nan nan nan 227 202 187 179 172 186 217 232 233 239 254 325 310 269 262 257 249 234 225 223 225 211 202 192 192 190 193 198 197 194 189 187 186 188 192 194 196 193 209 210 222 230 238 245 255 262 266 266 271 280 287 280 281 285 298 309 316 318 320 332 350 1 4
nan nan nan nan nan nan nan nan nan nan nan nan nan nan nan nan nan nan nan nan nan nan nan nan nan nan nan nan nan nan nan nan nan nan 253 222 201 192 190 203 218 228 236 250 246 251 271 273 259 251 241 231 230 228 228 224 210 199 195 196 197 201 201 197 192 191 191 193 195 198 201 209 211 216 229 235 246 243 251 266 266 278 280 286 287 292 284 283 298 311 316 315 338 339 339 354 342